Flag for U.S.A. Weather past 2 weeks in Prudhoe Bay, Alaska, U.S.A.

Now
-4 °F

Mostly cloudy.


Feels Like: -21 °F
Forecast: -2 / 0 °F
Wind: 10 mph from Northeast

Location: Deadhorse Airport

Current Time: Dec 19, 2014 at 3:33:42 AM

Latest Report: Dec 19, 2014 at 2:53 AM


Visibility: 10 mi

Pressure: 29.82 "Hg

Humidity: 79%

Dew point: -9 °F

Location of Prudhoe BayLocation

Historic Weather in Prudhoe Bay — Graph

°F

Prudhoe Bay temperature yesterday

Maximum temperature yesterday: -5 °F (at 10:53 PM)
Minimum temperature yesterday: -12 °F (at 1:53 AM)
Average temperature yesterday: -7 °F

Past Weeks' High & Low Weather Summary

 TemperatureHumidityPressure
High5 °F (Dec 5, 8:53 AM)90% (Dec 14, 3:53 AM)30.33 "Hg (Dec 14, 3:53 AM)
Low-35 °F (Dec 10, 8:53 PM)61% (Dec 14, 10:53 AM)29.74 "Hg (Dec 16, 5:53 PM)
Average-12 °F72%29.99 "Hg
* Reported Dec 4 1:53 AM — Dec 19 1:53 AM, Prudhoe Bay, Weather by CustomWeather, © 2014

Note: Actual official high and low records may vary slightly from our data, if they occured in-between our weather recording intervals... More about our weather records

Advertising

Prudhoe Bay weather history for previous 24 hours

 ConditionsComfort  
Time TempWeatherWind HumidityBarometerVisibility
1:53 AM
Dec 19
-5 °FMostly cloudy.13 mphN/A29.83 "Hg10 mi
12:53 AM-5 °FOvercast.10 mphN/A29.83 "Hg10 mi
11:53 PM
Dec 18
-5 °FOvercast.12 mph75%29.83 "Hg10 mi
10:53 PM-5 °FOvercast.12 mph75%29.83 "Hg10 mi
9:53 PM-6 °FPassing clouds.10 mph78%29.84 "Hg10 mi
8:53 PM-6 °FClear.7 mph78%29.85 "Hg10 mi
8:03 PM-6 °FPassing clouds.9 mph78%29.85 "Hg10 mi
7:53 PM-6 °FClear.10 mph78%29.85 "Hg10 mi
6:53 PM-7 °FPassing clouds.9 mph79%29.86 "Hg10 mi
5:53 PM-6 °FSunny.10 mph75%29.86 "Hg10 mi
4:53 PM-8 °FScattered clouds.9 mph78%29.87 "Hg10 mi
3:53 PM-7 °FScattered clouds.10 mph75%29.87 "Hg7 mi
2:53 PM-7 °FScattered clouds.12 mph79%29.87 "Hg10 mi
1:53 PM-7 °FScattered clouds.10 mph79%29.88 "Hg10 mi
12:53 PM-7 °FScattered clouds.8 mph79%29.89 "Hg10 mi
11:53 AM-7 °FBroken clouds.8 mph79%29.89 "Hg10 mi
10:53 AM-6 °FPassing clouds.9 mph75%29.88 "Hg10 mi
9:53 AM-7 °FPassing clouds.10 mph75%29.88 "Hg10 mi
8:53 AM-7 °FPassing clouds.12 mph75%29.88 "Hg10 mi
7:53 AM-8 °FPassing clouds.7 mph74%29.90 "Hg10 mi
6:53 AM-9 °FPassing clouds.7 mph74%29.89 "Hg10 mi
5:53 AMN/AClear.7 mphN/A29.90 "Hg10 mi
4:53 AMN/AClear.8 mphN/A29.90 "Hg10 mi
3:53 AMN/APassing clouds.7 mphN/A29.90 "Hg10 mi
Weather by CustomWeather, © 2014

See weather overviewHow to use our weather pages